Weather History for KGLH - December, 2013

Change the Weather History Date:

Monday, December 23, 2013

  Actual Average Record
Temperature  
Mean Temperature 36 °F 44 °F  
Max Temperature 41 °F 53 °F 77 °F (1931)
Min Temperature 30 °F 35 °F 1 °F (1989)
Degree Days  
Heating Degree Days 29 21  
Month to date heating degree days 438 447  
Since 1 July heating degree days 972 909  
Cooling Degree Days 0 0  
Month to date cooling degree days 7 0  
Year to date cooling degree days 2254 2186  
Moisture  
Dew Point 28 °F    
Average Humidity 75    
Maximum Humidity 85    
Minimum Humidity 64    
Precipitation  
Precipitation 0.00 in 0.17 in 2.72 in (1926)
Month to date precipitation 3.50 4.39  
Year to date precipitation 51.81 51.41  
Sea Level Pressure  
Sea Level Pressure 30.47 in    
Wind  
Wind Speed 10 mph (North)    
Max Wind Speed 20 mph    
Max Gust Speed 24 mph    
Visibility 10 miles    
Events      
T = Trace of Precipitation, MM = Missing Value Source: NWS Daily Summary

Daily Weather History Graph

Daily Weather History Graph

Search for Another Location

Airport or City:

Trip Planner

Search our weather history database for the weather conditions in past years. The results will help you decide how hot, cold, wet, or windy it might be!

Date:

Astronomy

Dec. 23, 2013 Rise Set
Actual Time 7:05 AM CST 5:01 PM CST
Civil Twilight 6:37 AM CST 5:28 PM CST
Nautical Twilight 6:06 AM CST 5:59 PM CST
Astronomical Twilight 5:36 AM CST 6:30 PM CST
Moon 10:54 PM CST (12/23) 10:46 AM CST (12/23)
Length of Visible Light 10h 51m
Length of Day
9h 56m
Waning Gibbous, 68% of the Moon is Illuminated
Dec 23
Waning Gibbous
Dec 25
Last Quarter
Jan 1
New
Jan 7
First Quarter
Jan 15
Full

Hourly Weather History & Observations

Time (CST) Temp. Windchill Dew Point Humidity Pressure Visibility Wind Dir Wind Speed Gust Speed Precip Events Conditions
12:53 AM 39.9 °F 31.4 °F 33.1 °F 77% 30.31 in 10.0 mi NNW 16.1 mph - N/A   Overcast
1:53 AM 37.0 °F 27.4 °F 28.9 °F 73% 30.35 in 9.0 mi North 17.3 mph 23.0 mph N/A   Overcast
2:53 AM 37.0 °F 29.8 °F 30.0 °F 76% 30.35 in 9.0 mi NNW 10.4 mph - N/A   Overcast
3:53 AM 36.0 °F 28.0 °F 28.9 °F 76% 30.35 in 9.0 mi North 11.5 mph - N/A   Overcast
4:53 AM 36.0 °F 27.1 °F 28.0 °F 73% 30.37 in 10.0 mi North 13.8 mph - N/A   Overcast
5:53 AM 36.0 °F 27.1 °F 28.0 °F 73% 30.39 in 9.0 mi NNE 13.8 mph 18.4 mph N/A   Overcast
6:53 AM 35.1 °F 24.5 °F 27.0 °F 72% 30.42 in 9.0 mi NNE 18.4 mph 24.2 mph N/A   Overcast
7:53 AM 36.0 °F 28.5 °F 28.0 °F 73% 30.45 in 8.0 mi North 10.4 mph - N/A   Overcast
8:53 AM 36.0 °F 26.7 °F 27.0 °F 70% 30.48 in 9.0 mi North 15.0 mph - N/A   Overcast
9:53 AM 37.0 °F 28.9 °F 27.0 °F 67% 30.52 in 10.0 mi NNE 12.7 mph - N/A   Overcast
10:53 AM 37.0 °F 28.1 °F 27.0 °F 67% 30.53 in 9.0 mi North 15.0 mph - N/A   Overcast
11:53 AM 37.9 °F 31.5 °F 28.0 °F 68% 30.51 in 9.0 mi North 9.2 mph - N/A   Overcast
12:53 PM 37.9 °F 30.9 °F 28.0 °F 68% 30.49 in 10.0 mi North 10.4 mph - N/A   Overcast
1:53 PM 39.9 °F 32.9 °F 28.9 °F 65% 30.48 in 10.0 mi North 11.5 mph - N/A   Mostly Cloudy
2:53 PM 39.0 °F 31.8 °F 28.0 °F 65% 30.49 in 10.0 mi North 11.5 mph - N/A   Mostly Cloudy
3:03 PM 39.2 °F 32.5 °F 28.4 °F 65% 30.46 in 10.0 mi North 10.4 mph - N/A   Scattered Clouds
3:11 PM 39.2 °F 32.0 °F 28.4 °F 65% 30.46 in 10.0 mi North 11.5 mph - N/A   Mostly Cloudy
3:49 PM 39.2 °F 32.0 °F 28.4 °F 65% 30.47 in 10.0 mi North 11.5 mph - N/A   Scattered Clouds
3:53 PM 39.0 °F 32.3 °F 28.0 °F 65% 30.50 in 10.0 mi North 10.4 mph - N/A   Partly Cloudy
4:53 PM 37.0 °F 29.8 °F 28.0 °F 70% 30.51 in 10.0 mi North 10.4 mph - N/A   Clear
5:53 PM 34.0 °F 28.8 °F 28.0 °F 79% 30.53 in 10.0 mi North 5.8 mph - N/A   Clear
6:53 PM 34.0 °F 29.8 °F 28.0 °F 79% 30.53 in 10.0 mi NNE 4.6 mph - N/A   Clear
7:53 PM 32.0 °F 27.5 °F 28.0 °F 85% 30.55 in 10.0 mi North 4.6 mph - N/A   Clear
8:53 PM 30.9 °F 26.2 °F 27.0 °F 85% 30.56 in 10.0 mi North 4.6 mph - N/A   Clear
9:53 PM 33.1 °F 30.0 °F 28.0 °F 82% 30.57 in 10.0 mi NNW 3.5 mph - N/A   Clear
10:53 PM 30.9 °F - 27.0 °F 85% 30.56 in 10.0 mi Calm Calm - N/A   Clear
11:53 PM 30.0 °F - 28.0 °F 92% 30.56 in 10.0 mi Calm Calm - N/A   Clear